カタログに戻る

THORAD AGENA D DEB

運用中LEO
NORAD 21721·DEBRIS·🇺🇸 United States

打ち上げ Apr 8, 1970 から Vandenberg Space Force Base

Loading…

次のパス (今後24時間)

TLE

最新Source: Space-Track

元期: Sep 14, 2026, 20:20 UTC

1 21721U 70025QG  26257.84741867  .00000806  00000-0  95086-3 0  9999
2 21721 100.1156 214.0543 0006777  42.2792 345.8940 13.71395246736494

AllMySatでTHORAD AGENA D DEBをリアルタイム追跡

Download on the App Store